QPF
0.00 0.00 0.00 0.00 0.00 0.00 0.00 0.00 0.00 0.00 0.00 0.00 0.00 0.00 0.00 0.00 0.00 0.00 0.00 0.00 0.00 0.00 0.00 0.00 0.00 0.00 0.00 0.00 0.00 0.00 0.00 0.00 0.00 0.00 0.00 0.00 0.00 0.00 0.00 0.00 0.00 0.00 0.00 0.00
0.00 0.00 0.00 0.00 0.00 0.00 0.00 0.00 0.00 0.00 0.00 0.00 0.00 0.00 0.00 0.00 0.00 0.00 0.00 0.00 0.00 0.00 0.00 0.00 0.00 0.00 0.00 0.00 0.00 0.00 0.00 0.00 0.00 0.00 0.00 0.00 0.00 0.00 0.00 0.00 0.00 0.00 0.00 0.00
0.00 0.00 0.00 0.00 0.00 0.00 0.00 0.00 0.00 0.00 0.00 0.00 0.00 0.00 0.00 0.00 0.00 0.00 0.00 0.00 0.00 0.00 0.00 0.00 0.00 0.00 0.00 0.00 0.00 0.00 0.00 0.00 0.00 0.00 0.00 0.00 0.00 0.01 0.00 0.00 0.00 0.00 0.00 0.00
0.00 0.00 0.00 0.00 0.00 0.00 0.00 0.00 0.00 0.00 0.00 0.00 0.00 0.00 0.00 0.00 0.00 0.00 0.00 0.00 0.00 0.00 0.00 0.00 0.00 0.00 0.00 0.00 0.00 0.00 0.00 0.00 0.00 0.00 0.00 0.00 0.00 0.00 0.00 0.00 0.00 0.00 0.00 0.00
0.00 0.00 0.00 0.00 0.00 0.00 0.00 0.00 0.00 0.00 0.00 0.00 0.00 0.00 0.00 0.00 0.00 0.00 0.00 0.00 0.00 0.00 0.00 0.00 0.00 0.00 0.00 0.00 0.00 0.00 0.00 0.00 0.00 0.00 0.00 0.00 0.00 0.00 0.00 0.00 0.00 0.00 0.00 0.00
0.00 0.00 0.00 0.00 0.00 0.00 0.00 0.00 0.00 0.00 0.00 0.00 0.00 0.00 0.00 0.00 0.00 0.00 0.00 0.00 0.00 0.00 0.00 0.00 0.00 0.00 0.00 0.00 0.00 0.00 0.00 0.00 0.00 0.00 0.00 0.00 0.00 0.00 0.00 0.00 0.00 0.00 0.00 0.00
0.00 0.00 0.00 0.00 0.00 0.00 0.00 0.00 0.00 0.00 0.00 0.00 0.00 0.00 0.00 0.00 0.00 0.00 0.00 0.00 0.00 0.00 0.00 0.00 0.00 0.00 0.00 0.00 0.00 0.00 0.00 0.00 0.00 0.00 0.00 0.00 0.00 0.00 0.00 0.00 0.00 0.00 0.00 0.00
0.00 0.00 0.00 0.00 0.00 0.00 0.00 0.00 0.00 0.00 0.00 0.00 0.00 0.00 0.00 0.00 0.00 0.00 0.00 0.00 0.00 0.00 0.00 0.00 0.00 0.00 0.00 0.00 0.00 0.00 0.00 0.00 0.00 0.00 0.00 0.00 0.00 0.00 0.00 0.00 0.00 0.00 0.00 0.00
0.00 0.00 0.00 0.00 0.00 0.00 0.00 0.00 0.00 0.00 0.00 0.00 0.00 0.00 0.00 0.00 0.00 0.00 0.00 0.00 0.00 0.00 0.00 0.00 0.00 0.00 0.00 0.00 0.00 0.00 0.00 0.00 0.00 0.00 0.00 0.00 0.00 0.00 0.00 0.00 0.00 0.00 0.00 0.00
0.00 0.00 0.00 0.00 0.00 0.00 0.00 0.00 0.00 0.00 0.00 0.00 0.00 0.00 0.00 0.00 0.00 0.00 0.00 0.00 0.00 0.00 0.00 0.00 0.00 0.00 0.00 0.00 0.00 0.00 0.00 0.00 0.00 0.00 0.00 0.00 0.00 0.00 0.00 0.00 0.00 0.00 0.00 0.00
0.00 0.00 0.00 0.00 0.00 0.00 0.00 0.00 0.00 0.00 0.00 0.00 0.00 0.00 0.00 0.00 0.00 0.00 0.00 0.00 0.00 0.00 0.00 0.00 0.00 0.00 0.00 0.00 0.00 0.00 0.00 0.00 0.00 0.00 0.00 0.00 0.00 0.00 0.00 0.00 0.00 0.00 0.00 0.00
0.00 0.00 0.00 0.00 0.00 0.00 0.00 0.00 0.00 0.00 0.00 0.00 0.00 0.00 0.00 0.00 0.00 0.00 0.00 0.00 0.00 0.00 0.00 0.00 0.00 0.00 0.00 0.00 0.00 0.00 0.00 0.00 0.00 0.00 0.00 0.00 0.00 0.00 0.00 0.00 0.00 0.00 0.00 0.00
0.00 0.00 0.00 0.00 0.00 0.00 0.00 0.00 0.00 0.00 0.00 0.00 0.00 0.00 0.00 0.00 0.00 0.00 0.00 0.00 0.00 0.00 0.00 0.00 0.00 0.00 0.00 0.00 0.00 0.00 0.00 0.00 0.00 0.00 0.00 0.00 0.00 0.00 0.00 0.00 0.00 0.00 0.00 0.00
0.00 0.00 0.00 0.00 0.00 0.00 0.00 0.00 0.00 0.00 0.00 0.00 0.00 0.00 0.00 0.00 0.00 0.00 0.00 0.00 0.00 0.00 0.00 0.00 0.00 0.00 0.00 0.00 0.00 0.00 0.00 0.00 0.00 0.00 0.00 0.00 0.00 0.00 0.00 0.00 0.00 0.00 0.00 0.00
0.00 0.00 0.00 0.00 0.00 0.00 0.00 0.00 0.00 0.00 0.00 0.00 0.00 0.00 0.00 0.00 0.00 0.00 0.00 0.00 0.00 0.00 0.00 0.00 0.00 0.00 0.00 0.00 0.00 0.00 0.00 0.00 0.00 0.00 0.00 0.00 0.00 0.00 0.00 0.00 0.00 0.00 0.00 0.00
0.00 0.00 0.00 0.00 0.00 0.00 0.00 0.00 0.00 0.00 0.00 0.00 0.00 0.00 0.00 0.00 0.00 0.00 0.00 0.00 0.00 0.00 0.00 0.00 0.00 0.00 0.00 0.00 0.00 0.00 0.00 0.00 0.00 0.00 0.00 0.00 0.00 0.00 0.00 0.00 0.00 0.00 0.00 0.00
0.00 0.00 0.00 0.00 0.00 0.00 0.00 0.00 0.00 0.00 0.00 0.00 0.00 0.00 0.00 0.00 0.00 0.00 0.00 0.00 0.00 0.00 0.00 0.00 0.00 0.00 0.00 0.00 0.00 0.00 0.00 0.00 0.00 0.00 0.00 0.00 0.00 0.00 0.00 0.00 0.00 0.00 0.00 0.00
0.00 0.00 0.00 0.00 0.00 0.00 0.00 0.00 0.00 0.00 0.00 0.00 0.00 0.00 0.00 0.00 0.00 0.00 0.00 0.00 0.00 0.00 0.00 0.00 0.00 0.00 0.00 0.00 0.00 0.00 0.00 0.00 0.00 0.00 0.00 0.00 0.00 0.00 0.00 0.00 0.00 0.00 0.00 0.00
0.00 0.00 0.00 0.00 0.00 0.00 0.00 0.00 0.00 0.00 0.00 0.00 0.00 0.00 0.00 0.00 0.00 0.00 0.00 0.00 0.00 0.00 0.00 0.00 0.00 0.00 0.00 0.00 0.00 0.00 0.00 0.00 0.00 0.00 0.00 0.00 0.00 0.00 0.00 0.00 0.00 0.00 0.00 0.00
0.00 0.00 0.00 0.00 0.00 0.00 0.00 0.00 0.00 0.00 0.00 0.00 0.00 0.00 0.00 0.00 0.00 0.00 0.00 0.00 0.00 0.00 0.00 0.00 0.00 0.00 0.00 0.00 0.00 0.00 0.00 0.00 0.00 0.00 0.00 0.00 0.00 0.00 0.00 0.00 0.00 0.02 0.01 0.00
0.00 0.00 0.00 0.00 0.00 0.00 0.00 0.00 0.00 0.00 0.00 0.00 0.00 0.00 0.00 0.00 0.00 0.00 0.00 0.00 0.00 0.00 0.00 0.00 0.00 0.00 0.00 0.00 0.00 0.00 0.00 0.00 0.00 0.00 0.00 0.00 0.00 0.00 0.00 0.00 0.03 0.05 0.03 0.02
0.00 0.00 0.00 0.00 0.00 0.00 0.00 0.00 0.00 0.00 0.00 0.00 0.00 0.00 0.00 0.00 0.00 0.00 0.00 0.00 0.00 0.00 0.00 0.00 0.00 0.00 0.00 0.00 0.00 0.00 0.00 0.00 0.00 0.00 0.00 0.00 0.00 0.00 0.00 0.01 0.10 0.08 0.01 0.00
0.00 0.00 0.00 0.00 0.00 0.00 0.00 0.00 0.00 0.00 0.00 0.00 0.00 0.00 0.00 0.00 0.00 0.00 0.00 0.00 0.00 0.00 0.00 0.00 0.00 0.00 0.00 0.00 0.00 0.00 0.00 0.00 0.00 0.00 0.00 0.00 0.00 0.00 0.02 0.07 0.10 0.02 0.00 0.00
0.02 0.01 0.00 0.00 0.00 0.00 0.00 0.01 0.01 0.00 0.00 0.00 0.00 0.00 0.00 0.00 0.00 0.00 0.00 0.00 0.00 0.00 0.00 0.00 0.00 0.00 0.00 0.00 0.00 0.00 0.00 0.00 0.00 0.00 0.00 0.00 0.00 0.03 0.05 0.05 0.01 0.00 0.00 0.00
0.02 0.01 0.00 0.00 0.01 0.03 0.01 0.00 0.00 0.00 0.00 0.00 0.00 0.00 0.00 0.00 0.00 0.00 0.00 0.00 0.00 0.00 0.00 0.00 0.00 0.00 0.00 0.00 0.00 0.00 0.01 0.00 0.05 0.10 0.15 0.13 0.09 0.09 0.05 0.00 0.00 0.00 0.00 0.00
0.01 0.01 0.01 0.03 0.07 0.09 0.08 0.06 0.04 0.05 0.02 0.01 0.00 0.00 0.00 0.00 0.00 0.00 0.00 0.00 0.00 0.00 0.00 0.00 0.00 0.00 0.01 0.02 0.03 0.10 0.31 0.37 0.43 0.43 0.31 0.18 0.15 0.07 0.02 0.00 0.00 0.00 0.00 0.00
MSLP
1000.03 1000.47 999.96 1000.29 1000.45 1000.43 1000.03 999.59 999.12 998.28 999.06 1000.38 1001.96 1002.12 1002.21 1002.08 1002.98 1003.53 1003.56 1004.18 1005.10 1005.82 1006.30 1006.84 1007.24 1007.99 1008.85 1009.50 1010.12 1010.76 1011.55 1012.35 1013.03 1013.72 1014.24 1014.79 1015.11 1015.04 1014.97 1014.89 1015.02 1015.44 1015.84 1015.82
1000.06 999.28 999.83 1000.02 999.82 999.90 999.50 999.22 998.74 999.64 998.38 999.29 1001.22 1002.40 1002.32 1001.19 1001.55 1002.18 1002.79 1003.23 1003.83 1004.77 1005.45 1006.16 1006.74 1007.31 1008.10 1008.89 1009.62 1010.41 1010.97 1011.72 1012.48 1013.17 1013.72 1014.15 1014.42 1014.52 1014.47 1014.58 1014.93 1015.12 1015.37 1015.52
998.79 998.49 999.13 999.12 998.95 998.93 998.53 998.42 998.26 999.08 1000.00 1000.36 1001.38 1001.79 1002.76 1001.02 1000.84 1001.50 1002.11 1001.99 1002.68 1003.23 1004.28 1005.07 1005.82 1006.52 1007.32 1008.19 1008.96 1009.77 1010.40 1011.11 1011.87 1012.62 1013.35 1013.79 1014.09 1014.37 1014.54 1014.59 1014.83 1014.82 1014.76 1015.22
997.88 997.96 997.76 997.92 997.75 997.91 997.80 997.38 997.69 998.92 999.39 1000.46 1000.66 1001.67 1002.05 1000.86 1000.55 1000.59 1001.07 1001.11 1001.59 1002.24 1002.93 1003.76 1004.62 1005.49 1006.23 1007.22 1008.09 1008.99 1009.82 1010.48 1011.23 1011.94 1012.75 1013.26 1013.61 1014.16 1014.01 1013.88 1014.09 1014.35 1014.54 1014.95
995.94 996.44 996.41 996.43 996.55 996.94 996.22 997.16 997.32 997.61 998.49 999.66 999.84 1001.55 999.93 1000.16 1000.23 1000.18 999.76 999.97 1000.32 1000.88 1001.64 1002.54 1003.38 1004.10 1004.95 1005.97 1007.09 1008.10 1009.00 1009.87 1010.50 1011.23 1011.84 1012.55 1013.12 1013.41 1013.32 1013.55 1013.65 1014.03 1014.53 1014.59
995.55 995.49 995.41 995.33 995.59 995.83 996.21 996.90 997.15 997.38 998.07 999.17 998.75 1000.95 999.59 998.97 998.68 999.38 998.46 998.09 998.76 999.71 1000.36 1001.29 1001.99 1003.10 1004.06 1004.97 1006.08 1007.26 1008.23 1009.08 1009.75 1010.48 1011.16 1011.83 1012.45 1012.75 1013.00 1013.28 1013.58 1013.83 1014.15 1014.39
995.17 994.64 994.38 994.53 994.71 994.91 995.43 996.47 997.23 997.70 997.62 997.71 998.32 998.69 997.48 996.49 996.24 996.37 997.05 997.59 997.62 998.48 999.38 1000.32 1001.27 1002.17 1003.14 1004.06 1005.12 1006.28 1007.35 1008.28 1008.95 1009.68 1010.37 1010.99 1011.70 1012.12 1012.43 1012.90 1013.30 1013.59 1013.99 1014.36
995.08 994.34 993.47 992.94 993.21 994.06 994.59 995.60 996.30 997.02 997.36 997.33 996.70 996.57 995.58 994.76 994.23 994.68 995.38 996.53 997.34 997.59 998.11 998.99 999.81 1000.63 1001.84 1002.99 1004.08 1005.23 1006.39 1007.37 1008.14 1008.78 1009.43 1010.04 1010.83 1011.41 1011.80 1012.26 1012.78 1013.10 1013.37 1013.73
994.10 993.42 992.42 992.34 992.57 993.11 993.66 993.70 995.13 996.48 996.93 996.70 995.93 994.89 994.07 993.77 994.40 994.74 994.54 995.49 996.24 996.40 996.85 997.96 998.67 999.54 1000.65 1001.83 1002.84 1003.86 1005.31 1006.37 1007.20 1007.81 1008.48 1009.14 1009.90 1010.64 1011.06 1011.51 1011.89 1012.36 1012.72 1013.17
993.17 993.03 992.39 991.96 992.00 991.98 992.20 993.59 994.80 995.32 996.41 996.16 995.55 994.58 993.49 993.34 994.24 994.22 994.35 994.76 995.57 995.71 996.23 997.28 997.69 998.14 999.17 1000.12 1001.44 1002.85 1003.98 1004.86 1005.84 1006.78 1007.50 1008.21 1008.91 1009.78 1010.41 1010.86 1011.24 1011.66 1012.06 1012.58
992.68 992.86 992.15 991.50 990.65 991.36 991.97 992.71 994.04 994.64 995.41 995.81 995.59 993.65 992.74 992.51 993.18 993.54 993.45 993.40 993.44 994.24 995.17 995.68 995.70 996.39 997.74 999.20 1000.45 1001.70 1003.01 1004.14 1005.09 1005.85 1006.58 1007.32 1008.07 1008.80 1009.64 1010.09 1010.54 1010.97 1011.46 1011.96
991.19 991.93 991.78 990.91 990.55 990.18 990.78 991.60 992.90 994.22 995.20 995.09 994.94 992.92 991.66 991.60 992.36 991.98 991.86 992.87 992.65 992.67 992.80 994.49 994.75 995.58 996.93 997.98 999.34 1000.53 1001.95 1002.99 1003.76 1004.65 1005.62 1006.34 1007.14 1007.92 1008.65 1009.16 1009.71 1010.25 1010.78 1011.22
990.15 990.41 991.45 990.97 990.30 989.71 989.64 990.66 991.66 992.91 994.24 993.80 994.32 992.40 991.64 991.72 991.73 992.71 993.04 992.79 992.52 992.49 992.45 992.86 993.66 994.94 995.98 997.15 998.23 999.36 1000.41 1001.45 1002.49 1003.66 1004.59 1005.47 1006.18 1006.97 1007.53 1008.16 1008.87 1009.43 1009.96 1010.49
990.58 989.41 989.18 988.95 989.05 989.60 989.46 989.57 990.35 991.57 992.12 993.24 991.74 993.05 992.09 991.61 991.48 990.94 991.44 991.68 991.60 992.48 991.92 992.07 992.65 993.96 994.99 996.16 997.17 998.10 999.12 1000.07 1001.16 1002.30 1003.29 1004.19 1004.98 1005.68 1006.36 1007.13 1007.97 1008.59 1009.07 1009.69
991.40 990.06 988.62 988.71 989.03 988.86 988.83 988.84 989.03 989.50 990.47 991.30 992.01 991.75 991.39 991.20 991.25 991.12 990.67 990.92 991.24 992.03 991.64 991.74 992.28 993.40 994.41 995.54 996.45 997.20 998.07 999.09 1000.04 1001.16 1002.06 1002.77 1003.79 1004.54 1005.48 1006.26 1006.94 1007.66 1008.34 1008.75
993.03 990.81 988.91 988.47 988.48 988.52 988.22 987.77 987.96 988.18 989.01 989.48 990.24 990.11 990.51 990.49 990.77 990.43 990.71 990.36 991.11 991.76 991.38 991.88 992.19 992.95 993.99 994.94 995.93 996.25 997.16 998.12 999.09 1000.01 1000.73 1001.85 1002.75 1003.67 1004.49 1005.35 1006.04 1006.79 1007.52 1008.22
995.25 992.84 990.40 988.92 988.64 988.83 988.37 986.37 987.23 987.51 987.58 988.32 988.66 989.70 989.98 990.14 990.23 990.60 990.07 990.71 989.53 990.74 991.65 991.74 991.97 992.41 993.14 993.85 994.46 995.18 995.85 996.97 998.13 998.90 999.98 1000.87 1001.73 1002.50 1003.48 1004.44 1005.29 1006.03 1006.76 1007.62
994.45 993.42 991.84 989.43 989.20 988.83 986.68 986.19 986.51 987.15 987.26 987.33 987.73 988.48 988.93 989.22 989.35 990.01 989.60 989.41 989.85 990.24 990.51 991.36 991.11 991.72 992.28 992.79 993.60 994.05 995.05 996.16 997.08 998.07 998.97 999.89 1000.72 1001.61 1002.72 1003.68 1004.48 1005.43 1006.33 1007.21
993.25 992.68 991.69 989.96 989.18 987.80 987.14 986.78 986.45 986.69 987.16 987.21 987.58 987.68 987.90 988.29 988.76 988.97 989.08 989.40 989.20 989.48 990.08 990.26 990.91 990.93 991.57 992.33 992.75 993.76 994.60 995.28 996.20 997.21 997.98 998.79 999.81 1000.82 1001.85 1002.84 1003.86 1004.86 1005.93 1006.91
992.09 991.70 991.85 990.05 989.41 987.79 987.21 987.14 986.51 986.86 987.49 987.05 987.11 987.42 987.68 987.85 988.89 989.35 989.21 989.26 989.48 989.20 989.48 990.18 990.33 990.51 991.26 991.78 992.22 992.97 993.88 994.81 995.58 996.22 996.79 997.79 998.90 999.98 1001.07 1002.22 1003.34 1004.35 1005.18 1006.27
992.46 991.93 991.47 990.15 989.60 988.36 987.39 987.44 987.01 987.80 988.35 987.73 987.39 987.83 988.13 988.72 989.16 989.20 988.85 988.79 988.84 989.10 989.05 988.83 989.51 990.28 990.90 991.26 991.95 992.57 993.24 993.81 994.45 995.52 996.54 997.42 998.39 999.47 1000.54 1001.77 1002.94 1004.07 1005.13 1005.94
994.46 994.46 992.66 991.87 990.48 989.55 988.32 987.85 988.55 988.73 988.14 988.35 987.97 988.19 988.36 988.71 988.89 988.99 989.03 989.11 989.22 989.30 989.46 989.31 989.71 990.15 990.09 990.45 991.48 992.16 992.79 992.85 994.22 995.39 996.69 997.55 998.35 999.41 1000.50 1001.65 1003.07 1004.09 1004.79 1005.76
996.70 996.62 996.02 994.05 991.37 990.25 989.53 989.36 989.32 989.31 988.49 988.83 988.84 988.45 988.72 988.90 989.11 989.51 989.88 989.93 989.97 990.11 990.05 989.97 990.22 990.37 990.49 990.47 990.68 991.58 992.37 992.90 993.91 995.43 996.87 997.93 998.82 999.77 1000.79 1002.02 1003.25 1004.34 1005.21 1006.13
996.88 997.22 996.70 995.44 993.00 991.60 990.41 990.89 990.60 989.27 989.38 989.64 989.76 989.34 989.27 989.86 989.99 990.50 990.60 990.83 991.05 991.04 990.93 990.82 991.01 991.09 991.37 991.50 991.28 991.45 992.42 993.10 994.02 995.84 997.27 998.34 999.37 1000.62 1001.63 1002.65 1003.59 1004.50 1005.45 1006.34
998.60 999.11 998.55 996.70 995.34 993.55 993.03 993.20 991.62 990.74 990.27 990.60 990.61 990.48 990.53 990.41 991.17 991.46 991.84 991.97 992.04 992.20 992.21 991.96 991.96 992.21 992.25 991.91 992.22 992.16 992.45 993.45 995.03 996.69 998.09 999.15 1000.20 1001.26 1002.48 1003.59 1004.45 1004.83 1005.80 1006.31
999.91 1000.38 1000.37 999.07 998.20 997.69 997.15 996.08 994.37 991.83 991.43 991.89 992.11 991.71 992.15 991.99 992.37 992.51 993.09 993.32 993.15 993.48 993.47 993.43 993.22 992.95 992.87 992.77 992.99 993.29 993.89 994.76 996.07 997.40 998.75 999.82 1000.79 1001.63 1002.62 1003.92 1005.45 1006.18 1006.42 1006.11
Thickness
5820 5795 5795 5807 5817 5825 5829 5826 5824 5854 5856 5829 5819 5819 5833 5841 5832 5829 5836 5833 5829 5827 5833 5837 5839 5840 5836 5834 5830 5827 5822 5818 5814 5808 5803 5800 5798 5801 5803 5805 5804 5801 5798 5797
5802 5795 5816 5825 5826 5823 5825 5822 5824 5831 5859 5848 5825 5818 5829 5848 5846 5844 5843 5838 5839 5837 5836 5837 5839 5841 5838 5835 5833 5830 5827 5823 5818 5813 5809 5807 5805 5805 5807 5807 5804 5802 5800 5800
5800 5815 5828 5820 5817 5814 5822 5820 5827 5816 5830 5833 5822 5808 5805 5845 5857 5854 5849 5853 5852 5849 5842 5842 5842 5843 5842 5838 5835 5832 5830 5827 5822 5817 5812 5809 5808 5806 5804 5805 5802 5802 5803 5799
5813 5828 5823 5814 5812 5821 5802 5846 5845 5823 5814 5780 5829 5777 5798 5828 5839 5847 5848 5853 5855 5856 5858 5855 5852 5849 5849 5845 5844 5838 5833 5829 5825 5821 5814 5810 5806 5799 5805 5809 5808 5805 5802 5799
5821 5821 5820 5814 5819 5830 5828 5845 5843 5843 5820 5810 5818 5776 5807 5828 5822 5831 5851 5858 5864 5866 5866 5862 5861 5862 5861 5857 5849 5843 5838 5832 5829 5824 5820 5814 5808 5810 5811 5809 5808 5806 5802 5800
5828 5846 5835 5831 5839 5839 5850 5832 5834 5836 5826 5769 5821 5782 5795 5814 5831 5836 5859 5872 5876 5873 5875 5873 5873 5870 5864 5863 5856 5847 5840 5835 5832 5828 5823 5817 5812 5810 5807 5807 5803 5802 5800 5798
5818 5824 5841 5845 5822 5836 5833 5809 5776 5769 5778 5769 5814 5803 5822 5859 5865 5869 5869 5870 5880 5879 5876 5873 5870 5868 5865 5863 5858 5851 5842 5836 5834 5830 5826 5822 5817 5814 5811 5806 5803 5801 5799 5796
5777 5776 5826 5851 5834 5816 5820 5812 5780 5739 5760 5785 5826 5789 5822 5880 5894 5890 5885 5880 5874 5881 5883 5878 5877 5877 5871 5867 5862 5855 5845 5839 5837 5834 5830 5827 5822 5817 5815 5811 5807 5804 5803 5800
5781 5788 5845 5846 5849 5840 5813 5803 5830 5788 5802 5781 5811 5834 5862 5883 5872 5875 5882 5879 5877 5882 5884 5879 5881 5881 5877 5871 5868 5864 5852 5846 5842 5839 5833 5829 5824 5820 5817 5815 5813 5809 5806 5803
5802 5771 5822 5838 5846 5845 5830 5837 5792 5801 5758 5757 5798 5808 5819 5858 5853 5869 5875 5879 5879 5884 5885 5869 5881 5887 5887 5884 5877 5871 5864 5856 5850 5844 5839 5832 5828 5823 5820 5817 5815 5813 5811 5806
5807 5789 5798 5824 5818 5813 5810 5808 5803 5806 5800 5764 5760 5798 5861 5864 5868 5866 5881 5888 5892 5887 5888 5885 5896 5901 5894 5888 5881 5874 5868 5860 5853 5849 5844 5837 5831 5828 5823 5820 5818 5814 5813 5808
5811 5793 5770 5793 5828 5845 5836 5818 5806 5775 5766 5784 5789 5798 5878 5889 5880 5887 5893 5889 5897 5899 5900 5885 5898 5901 5893 5891 5885 5878 5870 5865 5862 5857 5849 5842 5836 5832 5826 5824 5821 5819 5814 5812
5811 5787 5755 5771 5799 5821 5816 5825 5820 5815 5794 5778 5758 5793 5875 5876 5877 5875 5874 5881 5887 5890 5895 5904 5904 5896 5896 5892 5888 5883 5878 5873 5869 5861 5854 5847 5841 5835 5832 5828 5824 5820 5817 5812
5803 5797 5780 5765 5787 5804 5795 5815 5822 5811 5786 5780 5795 5799 5833 5859 5865 5882 5877 5885 5889 5879 5896 5899 5903 5896 5897 5894 5892 5889 5884 5881 5875 5868 5860 5853 5848 5843 5838 5833 5828 5823 5820 5814
5764 5752 5789 5795 5802 5810 5809 5811 5818 5807 5810 5786 5800 5805 5826 5856 5860 5872 5882 5886 5884 5880 5890 5893 5898 5896 5896 5893 5893 5890 5889 5883 5880 5871 5865 5861 5855 5849 5841 5835 5831 5826 5822 5818
5730 5742 5776 5772 5796 5800 5799 5814 5817 5821 5819 5815 5813 5811 5847 5860 5868 5873 5875 5884 5875 5877 5886 5892 5892 5893 5890 5889 5889 5893 5890 5885 5881 5874 5870 5864 5858 5851 5844 5837 5832 5825 5819 5814
5697 5719 5745 5748 5778 5777 5755 5799 5808 5816 5830 5822 5800 5820 5843 5842 5857 5859 5872 5866 5887 5881 5878 5886 5890 5894 5891 5890 5893 5888 5891 5888 5880 5875 5869 5864 5859 5853 5845 5839 5831 5825 5819 5813
5698 5705 5723 5732 5751 5720 5782 5820 5823 5813 5823 5834 5833 5833 5837 5842 5858 5863 5873 5871 5874 5879 5880 5879 5893 5892 5895 5897 5894 5894 5891 5884 5879 5873 5869 5866 5860 5853 5845 5837 5830 5822 5816 5807
5708 5704 5707 5716 5722 5753 5775 5796 5807 5801 5801 5830 5832 5835 5843 5850 5855 5853 5867 5871 5870 5880 5877 5882 5886 5891 5892 5888 5896 5888 5884 5882 5877 5870 5869 5867 5861 5852 5844 5834 5827 5819 5811 5802
5709 5714 5701 5712 5705 5708 5761 5797 5822 5819 5769 5831 5836 5834 5834 5842 5806 5821 5855 5863 5866 5874 5877 5872 5882 5889 5882 5880 5887 5886 5879 5873 5868 5870 5871 5868 5862 5853 5844 5834 5824 5816 5809 5800
5678 5687 5689 5701 5706 5731 5773 5795 5818 5759 5766 5812 5822 5822 5821 5812 5817 5835 5856 5862 5869 5869 5873 5882 5879 5877 5874 5880 5879 5874 5875 5871 5874 5869 5863 5860 5856 5849 5843 5832 5822 5811 5802 5795
5634 5632 5675 5693 5700 5703 5775 5788 5766 5774 5795 5802 5811 5819 5819 5826 5831 5837 5842 5849 5854 5855 5862 5868 5867 5867 5875 5878 5872 5865 5865 5877 5867 5861 5850 5846 5845 5841 5834 5824 5811 5801 5796 5785
5617 5642 5635 5673 5705 5738 5759 5765 5777 5780 5783 5794 5803 5818 5820 5822 5826 5825 5824 5831 5838 5844 5848 5854 5856 5858 5864 5867 5870 5861 5859 5863 5857 5848 5838 5832 5830 5827 5820 5810 5797 5787 5780 5771
5627 5631 5642 5660 5693 5707 5747 5742 5751 5776 5779 5782 5786 5796 5803 5799 5807 5806 5814 5817 5820 5823 5828 5835 5837 5839 5841 5844 5850 5851 5848 5848 5841 5830 5821 5816 5811 5805 5800 5793 5786 5779 5770 5761
5611 5614 5626 5653 5673 5697 5711 5711 5743 5760 5764 5768 5777 5783 5786 5794 5793 5795 5795 5798 5801 5802 5807 5817 5819 5817 5821 5829 5828 5831 5834 5830 5817 5807 5799 5792 5789 5784 5776 5769 5769 5768 5756 5750
5599 5600 5610 5630 5651 5659 5673 5687 5707 5739 5741 5746 5752 5763 5768 5775 5776 5779 5776 5779 5783 5781 5787 5791 5797 5801 5803 5808 5809 5809 5806 5803 5794 5785 5780 5775 5768 5763 5762 5757 5746 5736 5734 5736